Location: Sankt+Gallen
(47.4262°N, 9.3755°E)
Time: 05:46:07
(UTC+01:00)

ARIANE 6 FM1 Upper Stage - Pass Details

Date: 15 February 2026
Orbit: 523 x 607 km, 62.0° (Epoch: 11 March)

Event Time Altitude Azimuth Distance (km) Brightness Sun altitude
Rises 20:16:51 0° 313° (NW) 2,660 7.0 -26.0°
Reaches altitude 10° 20:19:05 10° 308° (NW) 1,768 6.0 -26.4°
Enters shadow 20:22:13 42° 266° (W) 762 3.7 -26.9°
